This demonstration page uses our WeatherBlox Daily Observations layout. Learn more.

Left ArrowRight Arrow

38.80484, -77.04692

Hourly Observations for November 8, 2021

Temp ( °F °C ) Dew Point ( °F °C ) Humidity (%) Winds ( mph kmh ) Pressure ( in mb ) Visibility ( mi km ) Precip ( " mm )
12:52 am 00:52 Partly Cloudy 45 7.2 32 0 61 61 NW 7 11 30.13 1020 10 16 0.00 0.00
1:52 am 01:52 Partly Cloudy 44 6.7 32 0 63 63 N 6 9 30.12 1020 10 16 0.00 0.00
2:52 am 02:52 Partly Cloudy 44 6.7 34 1.1 68 68 N 10 17 30.13 1020 10 16 0.00 0.00
3:52 am 03:52 Partly Cloudy 45 7.2 32 0 61 61 N 8 13 30.12 1020 10 16 0.00 0.00
4:52 am 04:52 Mostly Cloudy 44 6.7 32 0 63 63 N 7 11 30.14 1021 10 16 0.00 0.00
5:52 am 05:52 Mostly Clear 44 6.7 32 0 63 63 N 6 9 30.15 1021 10 16 0.00 0.00
6:52 am 06:52 Mostly Sunny 45 7.2 33 0.6 63 63 N 7 11 30.17 1022 10 16 0.00 0.00
7:52 am 07:52 Sunny 49 9.4 34 1.1 56 56 N 8 13 30.21 1023 10 16 0.00 0.00
8:52 am 08:52 Sunny 54 12.2 36 2.2 51 51 N 10 17 30.23 1024 10 16 0.00 0.00
9:52 am 09:52 Sunny 58 14.4 38 3.3 48 48 NNW 10 17 30.23 1024 10 16 0.00 0.00
10:52 am 10:52 Sunny 65 18.3 41 5 42 42 NNW 12 19 30.23 1024 10 16 0.00 0.00
11:52 am 11:52 Sunny 67 19.4 42 5.6 41 41 NNW 8 13 30.20 1023 10 16 0.00 0.00
12:52 pm 12:52 Sunny 69 20.6 42 5.6 38 38 NNW 13 20 30.19 1022 10 16 0.00 0.00
1:52 pm 13:52 Sunny 70 21.1 42 5.6 37 37 NW 9 15 30.17 1022 10 16 0.00 0.00
2:52 pm 14:52 Sunny 69 20.6 42 5.6 38 38 NW 13 20 30.17 1022 10 16 0.00 0.00
3:52 pm 15:52 Sunny 68 20 41 5 38 38 NNW 9 15 30.16 1022 10 16 0.00 0.00
4:52 pm 16:52 Sunny 65 18.3 40 4.4 40 40 NW 9 15 30.17 1022 10 16 0.00 0.00
5:52 pm 17:52 Clear 62 16.7 40 4.4 44 44 NNW 6 9 30.19 1022 10 16 0.00 0.00
6:52 pm 18:52 Clear 56 13.3 44 6.7 65 65 SSE 3 6 30.20 1023 10 16 0.00 0.00
7:52 pm 19:52 Clear 57 13.9 44 6.7 62 62 Calm 30.20 1023 10 16 0.00 0.00
8:52 pm 20:52 Clear 53 11.7 46 7.8 77 77 S 9 15 30.21 1023 10 16 0.00 0.00
9:52 pm 21:52 Clear 52 11.1 44 6.7 75 75 S 3 6 30.21 1023 10 16 0.00 0.00
10:52 pm 22:52 Clear 50 10 43 6.1 77 77 S 6 9 30.20 1023 10 16 0.00 0.00
11:52 pm 23:52 Clear 50 10 43 6.1 77 77 SW 3 6 30.20 1023 10 16 0.00 0.00

Powered by AerisWeather